[[{"header":{"parameterUnit":"m.s-1","parameterCategory":1,"la1":30.2991,"la2":30.254,"lo1":-89.0895,"lo2":-89.0444,"dy":0.0017,"dx":0.0017,"nx":28,"ny":28,"refTime":"2025-07-24T21:00:00:Z","depth":0,"parameterNumber":2,"parameterNumberName":"U-component_of_WINDS"},"data":[0,0,0,0,0,0,0,0,0,0,0,0,0,0,0,0,0,0,0,0,0,0,0,0,0,0,0,0,0,0,0,0,0,0,0,0,0,0,0,0,0,0,0,0,0,0,0,0,0,0,0,0,0,0,0,0,0,0,-0.2229,-0.2229,0,-0.2299,-0.23,-0.2301,-0.238,-0.2381,-0.2382,-0.2383,-0.2448,-0.2448,-0.2449,0,0,0,0,0,0,0,0,0,0,0,0,0,-0.2157,-0.2158,-0.2228,-0.2229,-0.223,-0.2299,-0.23,-0.2301,-0.238,-0.2381,-0.2383,-0.2384,-0.2448,-0.2448,-0.2449,0,0,0,0,0,0,0,0,0,0,0,0,0,-0.2204,-0.2159,-0.2228,-0.2278,-0.2283,-0.2299,-0.23,-0.2301,-0.2379,-0.2381,-0.2383,-0.2385,-0.2447,-0.2448,-0.2449,-0.2419,0,0,-0.2452,-0.2452,0,0,0,0,0,0,0,0,-0.2201,-0.2206,-0.227,-0.2275,-0.2281,-0.2333,-0.2299,-0.234,-0.2379,-0.2343,-0.2383,-0.2386,-0.2408,-0.2412,-0.2421,-0.2422,-0.2425,-0.2452,-0.2453,-0.2453,-0.2453,0,0,0,0,0,0,0,-0.2198,-0.2204,-0.2256,-0.2271,-0.2277,-0.2295,-0.2304,-0.2307,-0.2364,-0.2346,-0.2352,-0.236,-0.2411,-0.242,-0.2423,-0.2426,-0.2452,-0.2453,-0.2453,-0.2454,-0.2409,-0.2407,0,0,0,0,0,0,-0.2188,-0.2201,-0.2254,-0.2258,-0.2245,-0.2295,-0.2305,-0.2314,-0.2364,-0.2374,-0.2358,-0.2363,-0.2417,-0.2422,-0.2426,-0.2396,-0.2453,-0.2454,-0.2454,-0.2411,-0.2409,-0.2407,0,0,0,0,0,0,-0.2186,-0.2192,-0.2251,-0.2231,-0.224,-0.2295,-0.2304,-0.2314,-0.2324,-0.2373,-0.2383,-0.2357,-0.2419,-0.2424,-0.2421,-0.2399,-0.2454,-0.2455,-0.2413,-0.241,-0.2408,-0.2334,0,0,0,0,0,0,-0.2184,-0.2191,-0.2181,-0.2231,-0.2241,-0.2247,-0.2303,-0.2315,-0.2326,-0.2333,-0.2375,-0.2384,-0.2421,-0.242,-0.2422,-0.2401,-0.2456,-0.2415,-0.2412,-0.2408,-0.2339,-0.2329,-0.2321,0,0,0,0,0,-0.2181,-0.2155,-0.218,-0.2186,-0.223,-0.2245,-0.2251,-0.2296,-0.2324,-0.2314,-0.2346,-0.2382,-0.2401,-0.2419,-0.2422,-0.2401,-0.2417,-0.2412,-0.2409,-0.2342,-0.2331,-0.2321,0,0,0,0,0,0,-0.2097,-0.2162,-0.219,-0.218,-0.2207,-0.2259,-0.2247,-0.2282,-0.23,-0.2306,-0.2359,-0.2368,-0.2359,-0.238,-0.2398,-0.2376,-0.2414,-0.2411,-0.2363,-0.2352,-0.2343,-0.2338,-0.2456,0,0,0,0,0,-0.2078,-0.2087,-0.2142,-0.2128,-0.214,-0.2191,-0.22,-0.2233,-0.2262,-0.2273,-0.2305,-0.233,-0.2342,-0.2348,-0.2362,-0.2343,-0.2353,-0.233,-0.2321,-0.2314,-0.231,-0.2303,-0.2294,-0.2394,-0.2394,-0.2394,0,0,-0.2036,-0.2073,-0.2075,-0.2112,-0.2137,-0.2144,-0.22,-0.2204,-0.221,-0.2273,-0.2273,-0.2298,-0.2329,-0.2319,-0.2316,-0.2336,-0.2285,-0.2309,-0.2303,-0.2303,-0.2298,-0.2289,-0.228,-0.2391,-0.2392,-0.2392,0,0,-0.1966,-0.1995,-0.1987,-0.2012,-0.2051,-0.2086,-0.2084,-0.2132,-0.2152,-0.2154,-0.2202,-0.2209,-0.2228,-0.2249,-0.2262,-0.2205,-0.2239,-0.2208,-0.2161,-0.2154,-0.2146,-0.214,-0.212,-0.2112,-0.2204,-0.2204,-0.2204,0,-0.1909,-0.1924,-0.1978,-0.1981,-0.1996,-0.2058,-0.205,-0.2071,-0.211,-0.2119,-0.2142,-0.217,-0.2195,-0.2192,-0.2178,-0.2186,-0.2186,-0.2202,-0.2144,-0.2138,-0.2132,-0.2114,-0.2106,-0.22,-0.22,-0.2201,-0.2201,0,-0.1854,-0.1864,-0.1852,-0.1894,-0.1908,-0.1905,-0.1957,-0.1965,-0.1998,-0.203,-0.2032,-0.2066,-0.2088,-0.209,-0.212,-0.2092,-0.2104,-0.2134,-0.2173,-0.2118,-0.2102,-0.2095,-0.2194,-0.2195,-0.2197,-0.2198,0,0,-0.1728,-0.1804,-0.1798,-0.1819,-0.1869,-0.1876,-0.1877,-0.1903,-0.1909,-0.1935,-0.1937,-0.1954,-0.1984,-0.1999,-0.2033,-0.2027,-0.1981,-0.2059,-0.2061,-0.2044,-0.1953,-0.1929,-0.192,-0.2005,-0.2004,-0.2003,-0.1951,0,-0.1667,-0.1675,-0.1725,-0.1718,-0.1728,-0.1789,-0.179,-0.182,-0.1851,-0.1863,-0.1896,-0.1908,-0.1947,-0.1957,-0.1954,-0.1987,-0.1964,-0.1992,-0.2006,-0.2006,-0.1996,-0.1912,-0.1886,-0.1835,-0.1945,-0.1943,-0.1943,0,-0.1595,-0.1622,-0.1617,-0.167,-0.1676,-0.1676,-0.1705,-0.1717,-0.1752,-0.1775,-0.1795,-0.1834,-0.1838,-0.1877,-0.1883,-0.1901,-0.191,-0.1928,-0.1927,-0.1929,-0.197,-0.1912,-0.1819,-0.1811,-0.1933,-0.1934,-0.1935,0,-0.1506,-0.154,-0.1542,-0.1558,-0.1619,-0.1618,-0.1643,-0.1681,-0.1695,-0.172,-0.1729,-0.1753,-0.1765,-0.1782,-0.1828,-0.1851,-0.1829,-0.187,-0.1847,-0.1846,-0.1838,-0.1838,-0.1746,-0.1845,-0.1845,-0.1845,-0.1845,0,-0.1431,-0.1425,-0.1504,-0.1504,-0.1501,-0.1559,-0.1553,-0.1583,-0.1617,-0.1625,-0.1677,-0.1683,-0.1743,-0.1755,-0.179,-0.179,-0.1795,-0.1813,-0.1823,-0.1809,-0.1806,-0.1814,-0.1819,-0.1843,-0.1843,-0.1844,-0.1844,0,-0.1329,-0.1381,-0.1388,-0.1448,-0.1463,-0.1457,-0.1508,-0.1511,-0.1547,-0.1556,-0.1561,-0.1617,-0.1634,-0.1682,-0.171,-0.1734,-0.1724,-0.1742,-0.1713,-0.1719,-0.1694,-0.1696,-0.1603,-0.1594,-0.1698,-0.1697,-0.1696,0,-0.1278,-0.1276,-0.1337,-0.1348,-0.1372,-0.1388,-0.1404,-0.1461,-0.1474,-0.1517,-0.1515,-0.1538,-0.1559,-0.1584,-0.1625,-0.1648,-0.1666,-0.1633,-0.167,-0.1657,-0.1666,-0.1666,-0.1666,-0.1624,-0.1622,-0.1621,-0.162,0,-0.1182,-0.1209,-0.1231,-0.1263,-0.1281,-0.1307,-0.1336,-0.1342,-0.1406,-0.1419,-0.144,-0.1456,-0.1488,-0.151,-0.154,-0.1564,-0.1602,-0.1609,-0.1605,-0.159,-0.1574,-0.1583,-0.1691,-0.161,-0.1611,-0.1612,-0.1612,-0.1613,-0.1104,-0.1107,-0.1151,-0.1175,-0.1204,-0.1231,-0.1239,-0.1278,-0.1297,-0.133,-0.1362,-0.138,-0.1417,-0.1463,-0.1485,-0.1498,-0.1518,-0.1512,-0.151,-0.1508,-0.1502,-0.1573,-0.1504,-0.1504,-0.1504,-0.1505,-0.1505,0,-0.1012,-0.1045,-0.1066,-0.1108,-0.1126,-0.1166,-0.1201,-0.1213,-0.1229,-0.1263,-0.1284,-0.1309,-0.1331,-0.1377,-0.1403,-0.1405,-0.1424,-0.141,-0.141,-0.1415,-0.1482,-0.1483,-0.1395,-0.1395,-0.1395,-0.1395,-0.1395,-0.1395,-0.0966,-0.0973,-0.1005,-0.1028,-0.106,-0.1081,-0.1098,-0.1124,-0.1151,-0.1178,-0.1198,-0.1229,-0.1268,-0.1298,-0.132,-0.1333,-0.134,-0.132,-0.1338,-0.14,-0.141,-0.142,-0.1422,-0.1322,-0.1321,-0.1271,-0.127,-0.127]},{"header":{"parameterUnit":"m.s-1","parameterCategory":1,"la1":30.2991,"la2":30.254,"lo1":-89.0895,"lo2":-89.0444,"dy":0.0017,"dx":0.0017,"nx":28,"ny":28,"refTime":"2025-07-24T21:00:00:Z","depth":0,"parameterNumber":3,"parameterNumberName":"V-component_of_WINDS"},"data":[0,0,0,0,0,0,0,0,0,0,0,0,0,0,0,0,0,0,0,0,0,0,0,0,0,0,0,0,0,0,0,0,0,0,0,0,0,0,0,0,0,0,0,0,0,0,0,0,0,0,0,0,0,0,0,0,0,0,6.1049,6.1047,0,6.0923,6.0922,6.092,6.0861,6.0861,6.0861,6.0861,6.0722,6.0718,6.0714,0,0,0,0,0,0,0,0,0,0,0,0,0,6.1226,6.1223,6.1049,6.1047,6.1046,6.0924,6.0922,6.092,6.0861,6.0861,6.0861,6.0861,6.0723,6.0718,6.0714,0,0,0,0,0,0,0,0,0,0,0,0,0,6.113,6.1222,6.1049,6.1002,6.0996,6.0924,6.0922,6.092,6.0861,6.0861,6.0861,6.0861,6.0724,6.0719,6.0713,6.0675,0,0,6.0696,6.0693,0,0,0,0,0,0,0,0,6.1135,6.1123,6.101,6.1005,6.0999,6.0908,6.0933,6.0837,6.0861,6.0912,6.0861,6.0861,6.0783,6.0772,6.0748,6.0669,6.0663,6.0695,6.0692,6.0689,6.0688,0,0,0,0,0,0,0,6.1142,6.1128,6.0999,6.1009,6.1002,6.0983,6.097,6.0915,6.0848,6.0907,6.0903,6.0889,6.078,6.0754,6.0744,6.0661,6.0696,6.069,6.0687,6.0685,6.0541,6.0541,0,0,0,0,0,0,6.1158,6.1134,6.1003,6.0995,6.1069,6.098,6.0965,6.0937,6.0848,6.0835,6.0889,6.0887,6.0764,6.0751,6.0739,6.0688,6.0689,6.0684,6.0681,6.0542,6.0541,6.0541,0,0,0,0,0,0,6.1162,6.1147,6.1008,6.1063,6.1044,6.0977,6.0946,6.0934,6.0909,6.0835,6.0821,6.0876,6.0763,6.0747,6.0692,6.0682,6.0682,6.0676,6.0542,6.0542,6.0541,6.0586,0,0,0,0,0,0,6.1167,6.1149,6.1136,6.1064,6.1042,6.0966,6.0945,6.0932,6.09,6.0896,6.0819,6.0806,6.0762,6.0701,6.0686,6.0675,6.0672,6.0543,6.0542,6.0541,6.0585,6.0587,6.0589,0,0,0,0,0,6.1174,6.1152,6.1136,6.112,6.1025,6.0966,6.0953,6.0906,6.09,6.0885,6.0837,6.0808,6.0686,6.0696,6.0679,6.0665,6.0543,6.0542,6.0541,6.0584,6.0587,6.0589,0,0,0,0,0,0,6.1221,6.1141,6.1123,6.1077,6.1029,6.0956,6.0936,6.091,6.086,6.0858,6.0798,6.0781,6.073,6.0692,6.0704,6.0623,6.0612,6.0607,6.065,6.0652,6.0654,6.0663,6.0667,0,0,0,0,0,6.1227,6.1189,6.112,6.1086,6.1063,6.1004,6.0976,6.0945,6.0891,6.0869,6.0817,6.0763,6.0712,6.068,6.0629,6.0579,6.056,6.0561,6.0563,6.0565,6.0562,6.0531,6.053,6.0538,6.0538,6.0538,0,0,6.1237,6.1189,6.1168,6.1094,6.1053,6.1012,6.0987,6.0944,6.0912,6.0861,6.0807,6.0767,6.0702,6.065,6.0623,6.0616,6.0555,6.0564,6.0566,6.0561,6.053,6.0529,6.0528,6.0537,6.0538,6.0538,0,0,6.1235,6.1196,6.1163,6.1123,6.1063,6.1023,6.1016,6.0946,6.0919,6.0864,6.0825,6.0783,6.0697,6.0653,6.0619,6.0599,6.057,6.0584,6.0593,6.0564,6.0563,6.0562,6.0554,6.0552,6.0581,6.0581,6.0581,0,6.1254,6.1194,6.1148,6.1109,6.1076,6.1032,6.0996,6.0958,6.0883,6.086,6.0853,6.0745,6.0698,6.0633,6.0629,6.0603,6.059,6.0592,6.0568,6.0566,6.0564,6.0556,6.0553,6.0583,6.0583,6.0583,6.0582,0,6.122,6.1179,6.1159,6.1091,6.1056,6.1019,6.0964,6.0934,6.0905,6.0865,6.0808,6.0751,6.0687,6.0669,6.0639,6.06,6.0597,6.058,6.0567,6.0567,6.0557,6.0554,6.0586,6.0585,6.0585,6.0584,0,0,6.1244,6.1152,6.1146,6.1114,6.1044,6.1009,6.0968,6.0909,6.0884,6.0832,6.0794,6.0723,6.0707,6.0668,6.0632,6.0607,6.0593,6.0592,6.0589,6.0593,6.0544,6.0557,6.0554,6.0574,6.0573,6.0572,6.0549,0,6.1231,6.116,6.1118,6.1062,6.1022,6.0979,6.0942,6.0893,6.0855,6.0812,6.0767,6.0718,6.0701,6.0677,6.065,6.0601,6.0582,6.0602,6.0534,6.0533,6.0552,6.0549,6.0563,6.0544,6.0545,6.0544,6.0544,0,6.1207,6.1161,6.1103,6.1037,6.1018,6.0987,6.0929,6.089,6.0832,6.0805,6.0763,6.0727,6.0678,6.0671,6.0601,6.0615,6.0584,6.0556,6.0554,6.0545,6.0538,6.0539,6.0537,6.0534,6.0538,6.0538,6.0539,0,6.1229,6.1152,6.1107,6.1081,6.1003,6.0982,6.0948,6.089,6.0858,6.0806,6.0783,6.0725,6.0692,6.0646,6.0594,6.0594,6.0529,6.0517,6.0502,6.0504,6.049,6.0491,6.0482,6.0472,6.0472,6.0473,6.0473,0,6.1219,6.1184,6.1116,6.1088,6.1047,6.0997,6.0956,6.0918,6.0868,6.0829,6.0786,6.075,6.0684,6.0639,6.0597,6.0544,6.053,6.0505,6.0494,6.0508,6.0511,6.0486,6.0486,6.0472,6.0472,6.0472,6.0472,0,6.1236,6.1189,6.1137,6.1069,6.1051,6.1023,6.0962,6.0932,6.0892,6.0843,6.0828,6.0763,6.0707,6.0651,6.0575,6.0547,6.0494,6.048,6.0515,6.0509,6.0497,6.0499,6.0471,6.0463,6.046,6.0461,6.0461,0,6.1233,6.1206,6.1135,6.1108,6.1076,6.1033,6.1,6.0948,6.0915,6.0847,6.0823,6.0765,6.0716,6.0628,6.0571,6.0512,6.0495,6.0489,6.0486,6.05,6.0493,6.0495,6.0491,6.0491,6.0491,6.0491,6.0492,0,6.1231,6.1209,6.1166,6.1114,6.1077,6.1032,6.0985,6.0964,6.0903,6.0867,6.0812,6.0774,6.0697,6.0638,6.0572,6.0532,6.05,6.0494,6.0487,6.05,6.0521,6.0509,6.0519,6.0494,6.0494,6.0494,6.0493,6.0493,6.1237,6.1211,6.1157,6.1109,6.107,6.1027,6.0995,6.0952,6.0906,6.0843,6.0813,6.0757,6.0697,6.0606,6.0567,6.0519,6.051,6.0501,6.0498,6.0496,6.0499,6.053,6.0506,6.0506,6.0506,6.0506,6.0506,0,6.1232,6.1196,6.1153,6.1091,6.1052,6.103,6.0977,6.0945,6.0897,6.0846,6.08,6.0734,6.0677,6.0617,6.0555,6.0528,6.0512,6.0513,6.0514,6.0505,6.0511,6.0523,6.0528,6.0528,6.0528,6.0528,6.0528,6.0528,6.1225,6.1179,6.1151,6.1084,6.1046,6.0994,6.0966,6.0925,6.0884,6.0815,6.0768,6.0731,6.0674,6.0609,6.0554,6.0537,6.0515,6.0521,6.05,6.0506,6.0505,6.0503,6.0514,6.0517,6.0517,6.0498,6.0498,6.0498]}]]